GFSWCAN_925_thetae_021.txt.gz
Theta_e
305 304 305 305 304 304 304 304 302 302 303 303 304 303 303 303 302 301 301 301 302 307 307 307 308 308 308 309 311 309 307 308 308 308 312 313 314 314 316 315 316 317 318 321 319 321 323 313 317 327 325 324 328 325
305 305 304 303 303 303 302 302 302 302 302 303 303 302 303 303 303 300 301 301 303 306 307 307 307 307 307 308 308 308 307 307 310 310 309 311 314 314 314 315 313 317 315 314 318 317 315 314 318 319 321 323 322 323
303 303 302 302 301 300 300 300 301 302 302 302 302 302 302 303 303 301 301 301 302 306 306 307 309 311 310 309 309 308 306 306 307 307 308 310 312 313 314 314 315 313 313 311 316 315 315 316 315 316 317 318 318 319
302 301 301 300 298 298 299 299 300 299 301 302 302 302 303 303 303 301 300 300 303 307 307 308 307 307 309 310 309 308 307 304 304 306 310 311 312 313 314 312 315 313 313 314 315 316 315 315 315 315 316 317 316 317
300 298 296 296 297 298 298 299 299 300 300 301 303 302 302 302 302 300 300 301 302 307 309 309 307 311 311 310 310 308 307 305 305 309 311 314 314 315 313 313 313 311 313 314 316 314 314 315 314 314 314 316 316 317
293 295 296 295 295 296 297 298 300 300 301 301 301 302 302 302 301 301 308 305 303 305 308 308 307 308 312 312 312 310 308 307 307 310 312 312 313 312 313 315 313 311 311 312 314 312 313 313 313 313 314 315 316 317
293 294 295 296 295 294 296 297 299 300 301 301 301 301 302 302 301 304 309 307 307 307 309 309 311 312 312 311 312 312 312 309 309 311 312 311 312 314 314 313 312 310 311 312 311 312 313 313 313 313 314 314 315 316
293 294 295 295 296 295 296 297 297 299 299 298 301 302 302 302 304 305 307 308 308 308 308 310 311 312 313 314 314 312 313 313 313 313 313 313 313 313 313 312 312 312 312 313 312 312 312 312 312 312 313 313 314 316
294 294 294 295 295 295 296 297 298 298 298 300 303 304 304 305 309 310 308 307 307 309 309 311 311 316 313 312 312 312 312 313 313 314 314 312 313 313 314 313 313 313 313 313 313 312 312 311 312 311 312 313 313 314
294 294 294 295 294 295 295 296 297 298 302 305 306 307 310 307 304 306 306 308 307 306 308 309 310 313 313 314 313 312 313 314 316 314 312 314 314 313 312 312 312 312 311 310 310 312 313 314 313 311 312 312 312 312
293 293 294 294 295 294 295 296 298 299 304 304 306 307 304 304 306 310 310 310 310 311 310 310 310 311 314 315 313 312 314 312 315 316 314 316 315 314 311 311 310 311 310 309 310 311 312 312 311 311 311 311 310 310
293 293 293 294 294 294 294 296 298 299 299 300 300 301 303 305 309 310 312 312 313 315 313 314 314 314 314 312 312 312 312 312 316 315 315 317 315 313 312 312 312 310 310 310 309 311 310 311 310 310 310 310 309 308
292 293 293 293 294 297 298 297 297 297 299 303 302 303 305 307 310 311 312 316 317 315 315 315 314 314 312 311 312 312 311 311 313 314 317 317 314 312 312 311 311 310 310 310 311 311 310 310 310 309 309 309 308 308
292 292 293 295 297 298 297 296 296 297 301 306 308 308 308 309 312 312 313 314 315 314 312 312 314 313 313 313 313 313 312 312 312 315 316 314 313 312 312 312 311 310 310 310 310 310 310 310 310 310 309 309 308 307
292 292 295 296 295 295 295 295 295 296 302 306 309 310 310 310 312 313 313 313 313 312 311 312 313 314 314 314 314 313 313 312 311 312 315 314 313 313 313 312 311 310 310 310 309 310 309 309 309 309 308 308 307 307
291 293 296 293 293 293 292 293 296 299 303 306 308 309 310 312 312 313 315 314 314 313 312 312 312 314 315 314 313 313 313 310 310 314 314 312 313 312 313 311 311 310 310 309 308 310 310 309 309 309 307 308 307 307
291 294 294 294 292 292 293 296 300 303 305 307 307 307 308 309 310 310 311 312 313 313 315 314 314 314 314 314 315 314 313 311 315 314 313 314 313 311 310 311 313 311 310 309 310 310 310 309 308 309 308 308 307 307
292 293 293 292 293 293 297 300 301 304 304 305 305 305 305 306 307 308 309 311 314 315 313 315 314 314 314 315 315 315 315 315 313 312 311 311 310 311 310 310 311 311 309 308 310 310 310 309 307 308 307 308 307 306
292 291 291 293 294 294 297 301 302 303 304 305 305 306 307 307 308 309 310 310 313 315 315 314 313 314 314 313 313 313 315 312 313 312 312 314 313 313 311 311 310 310 309 310 311 309 310 307 307 306 307 307 306 305
291 291 293 294 294 296 298 299 301 304 304 306 305 305 306 307 307 308 309 311 313 314 314 314 314 313 311 312 312 311 312 312 312 312 313 312 312 312 311 311 309 310 309 309 310 310 309 308 307 306 306 306 306 303
292 293 292 293 295 297 298 299 300 303 304 304 304 305 306 307 308 309 309 308 310 313 313 313 313 312 312 312 312 311 312 312 310 310 312 311 311 312 311 311 312 310 310 309 308 306 309 308 306 306 306 306 304 303
292 292 293 294 295 296 299 299 300 300 300 301 301 301 302 303 304 304 305 305 306 308 311 312 312 313 312 312 311 312 312 312 312 309 310 309 312 312 310 311 310 309 310 308 308 308 308 306 306 305 306 304 302 301
293 294 294 295 295 296 296 297 299 299 300 302 302 302 303 304 305 306 308 309 309 308 308 308 310 311 311 312 312 313 311 311 311 311 309 309 310 311 311 310 310 309 308 309 308 307 307 305 305 305 304 305 303 301
293 292 296 295 296 296 298 299 301 301 301 301 302 302 303 304 304 305 306 306 307 307 309 311 312 312 311 312 312 312 312 311 310 311 310 310 310 309 309 310 309 308 309 308 307 307 306 305 305 304 303 303 303 301
293 293 294 295 297 298 297 298 298 299 299 299 300 301 301 301 302 303 304 305 306 308 309 311 311 312 312 313 311 311 311 310 309 310 311 310 310 310 309 308 307 307 307 307 307 306 305 304 304 303 302 301 302 300
294 294 295 296 297 297 297 297 298 300 301 301 301 302 304 302 302 303 305 305 305 304 305 306 307 310 309 308 308 310 310 309 310 309 310 310 309 309 309 309 308 307 307 306 306 306 305 304 303 302 299 299 299 300
294 294 294 294 294 295 295 296 296 297 298 299 301 302 304 306 305 304 302 300 301 301 303 304 305 306 307 307 307 308 309 308 309 309 309 309 309 309 309 309 307 305 304 304 304 304 304 303 303 303 301 299 298 297
294 293 293 294 294 295 295 296 295 296 297 299 300 302 304 302 302 302 302 303 299 298 298 300 302 303 305 305 308 308 309 309 308 308 309 309 308 307 307 307 307 306 304 303 303 303 303 303 302 301 301 298 297 296
295 295 294 295 295 295 295 296 296 296 297 297 298 299 300 301 301 301 302 302 301 301 300 301 303 305 305 306 307 306 307 308 308 308 306 307 307 304 304 303 303 303 302 303 303 302 302 302 301 300 298 297 295 294
295 295 295 295 296 296 296 297 297 297 297 297 298 299 300 301 296 294 295 296 299 300 299 301 301 302 302 302 304 301 300 300 302 305 306 305 303 304 303 303 303 302 301 301 299 298 299 298 299 297 296 294 293 292
296 297 297 297 297 297 298 298 298 298 298 298 298 298 299 298 294 291 291 292 292 294 293 294 295 297 298 298 299 300 300 298 297 299 302 302 303 303 305 302 303 302 301 299 297 297 298 299 297 294 292 291 292 291
299 300 299 299 300 299 299 299 299 299 299 300 299 299 300 299 295 293 290 290 291 291 291 291 292 293 296 295 294 294 294 295 296 297 298 298 299 300 302 303 303 302 302 301 299 297 296 294 294 292 291 290 290 289
300 300 300 300 300 299 300 300 300 300 299 301 299 299 297 294 292 291 289 288 289 289 290 290 291 292 294 294 294 293 292 292 295 296 296 296 296 296 297 298 298 298 298 297 295 294 293 292 292 291 290 289 288 287

GFSWCAN_925_thetae_024.txt.gz
Theta_e
304 305 305 304 303 303 302 302 300 300 300 300 302 302 302 302 303 303 301 300 301 301 301 302 304 307 307 306 310 309 306 303 306 307 309 309 315 314 315 315 315 316 316 319 319 319 320 312 315 325 323 322 323 324
304 304 303 302 302 301 299 298 299 299 299 300 300 301 301 302 302 303 302 301 300 301 301 303 302 303 304 305 307 308 307 305 309 306 307 310 313 313 314 314 313 316 313 314 314 314 309 312 318 316 317 318 320 321
302 302 301 301 297 295 296 298 298 299 299 299 300 300 301 302 303 303 302 301 300 299 301 302 305 308 307 307 307 309 304 303 303 305 306 309 310 311 314 314 313 312 311 309 312 315 314 314 315 316 316 316 317 319
301 301 298 294 295 297 295 296 297 298 299 300 300 300 301 301 301 302 302 301 300 301 307 305 306 306 306 307 308 308 304 302 302 305 308 310 311 311 312 312 314 312 312 313 314 315 315 315 315 315 316 316 317 317
300 296 294 296 297 296 297 295 295 296 297 299 301 301 302 301 302 302 301 301 300 302 308 306 305 307 307 310 309 307 304 304 304 306 309 312 314 314 312 312 311 310 312 313 315 313 314 315 315 315 316 316 315 316
294 292 295 295 295 296 296 296 296 296 297 298 299 300 300 301 302 301 302 305 302 300 306 307 303 306 308 309 308 306 305 305 305 306 305 309 310 312 311 313 312 309 310 310 312 311 312 312 313 313 314 315 315 315
294 294 294 294 294 295 296 296 296 297 298 298 299 298 299 301 301 301 306 305 304 303 308 305 305 308 308 310 309 308 307 308 309 311 307 308 311 313 309 311 311 309 311 310 311 311 312 312 313 312 313 313 313 313
294 294 294 295 295 295 295 295 296 296 296 298 300 301 302 302 302 302 305 306 306 307 307 307 307 307 310 309 310 307 309 309 308 308 309 310 310 308 310 313 311 311 311 313 312 310 310 310 310 311 312 312 312 312
292 294 294 294 294 295 295 295 295 296 299 302 304 305 304 304 306 309 308 307 307 308 308 307 307 306 310 310 310 307 306 309 307 310 309 309 308 309 311 311 312 312 312 312 311 311 311 311 310 311 310 311 311 310
293 293 293 294 294 294 294 295 295 298 301 303 306 306 309 305 303 306 306 307 306 307 307 309 305 306 309 312 312 307 307 309 310 309 309 309 307 310 310 310 310 310 309 308 309 311 311 311 310 310 309 309 309 309
292 293 293 293 294 294 295 296 296 298 300 300 300 303 302 303 304 307 310 307 307 308 305 305 306 306 307 313 310 306 303 307 310 310 312 305 304 311 308 308 308 310 309 308 308 309 309 310 309 309 309 308 307 306
292 292 292 293 294 295 297 297 297 296 297 297 298 300 301 303 306 309 309 310 311 309 308 308 308 306 309 307 305 305 305 305 312 313 315 310 311 310 310 311 308 307 307 308 308 309 309 308 308 308 308 306 305 306
292 292 292 293 296 296 297 296 296 295 296 301 302 303 303 305 306 310 307 310 312 311 311 311 312 310 308 308 306 305 306 304 305 305 312 312 313 310 308 308 308 306 308 308 310 309 309 309 309 309 309 306 305 305
291 292 292 294 295 295 294 294 293 293 297 304 305 306 305 305 308 307 308 309 311 311 311 308 310 310 308 308 308 309 308 306 305 306 311 311 312 312 309 308 307 307 308 308 308 310 309 308 307 308 307 306 305 305
291 292 293 295 294 293 292 291 291 294 298 302 304 306 305 305 306 307 308 308 310 310 309 309 310 308 306 311 311 309 311 306 301 302 305 309 311 312 312 310 308 307 307 308 307 308 309 308 306 307 307 306 306 305
292 292 295 294 293 292 292 292 295 295 299 302 303 305 304 304 306 306 306 308 309 312 312 309 309 310 311 309 310 310 307 306 303 302 308 310 311 312 311 309 308 307 307 306 308 309 309 308 307 307 307 306 306 305
291 292 292 292 291 293 293 295 298 300 300 303 303 303 302 303 305 305 305 305 306 312 313 313 313 310 308 307 307 305 306 304 305 307 308 309 309 310 309 309 310 309 306 307 308 309 308 308 307 307 305 304 304 304
292 291 291 290 292 294 293 298 299 301 302 302 302 301 300 300 301 301 303 304 305 311 312 313 311 312 309 308 302 305 307 307 308 308 309 309 310 309 308 307 309 308 307 308 309 309 307 307 306 305 305 304 304 303
292 292 291 292 293 295 294 297 299 299 300 300 300 300 300 301 302 303 304 304 305 306 310 312 313 311 308 308 308 308 308 311 311 310 308 307 307 309 310 308 309 307 306 306 308 308 306 306 306 306 305 304 302 302
291 290 291 293 293 295 295 295 298 300 298 299 299 300 299 300 301 301 303 303 304 305 312 313 311 310 309 308 307 307 309 309 308 309 310 309 310 311 308 308 307 307 307 307 308 307 306 305 305 306 305 303 302 301
291 292 291 292 293 295 294 295 296 296 298 299 300 298 298 298 298 300 301 300 301 304 308 309 309 308 307 307 306 306 305 306 308 308 309 310 311 310 309 308 307 307 305 306 307 306 305 305 305 305 304 302 302 301
291 291 292 293 293 294 293 295 296 296 296 296 296 295 295 295 298 298 298 299 301 301 301 304 306 308 309 308 308 307 308 309 308 307 308 308 309 308 309 309 308 306 305 305 306 307 306 306 305 305 303 302 301 300
293 293 293 293 295 293 293 295 297 297 298 297 296 298 298 297 298 299 300 302 301 300 303 305 305 305 308 309 310 309 309 309 307 307 307 308 309 309 309 308 308 307 307 306 307 307 305 305 305 303 302 301 300 299
293 292 295 296 293 290 295 295 295 296 297 296 298 298 298 298 299 299 301 300 301 303 303 304 305 308 307 308 308 308 308 309 309 309 309 308 308 308 310 310 308 307 307 307 306 305 304 304 305 303 302 300 299 299
292 287 292 291 292 294 296 295 296 294 297 296 297 297 296 297 297 297 299 302 302 301 302 304 305 305 307 310 309 308 310 309 306 306 307 308 308 307 308 309 308 308 308 306 305 304 304 303 302 302 301 300 298 298
287 290 289 293 293 293 293 295 295 294 295 296 300 301 299 299 300 302 304 302 301 300 299 302 303 304 304 304 306 307 307 307 307 305 307 309 308 308 308 308 307 307 307 306 305 304 303 302 301 301 300 299 298 297
290 289 291 293 293 293 292 292 291 291 294 296 296 298 300 302 302 302 300 298 300 299 299 300 302 303 304 305 308 307 307 307 308 308 309 309 309 309 308 307 307 307 307 307 305 304 303 302 300 299 298 298 297 296
292 293 293 290 293 293 294 294 293 294 294 295 297 297 297 299 300 298 299 298 301 300 300 299 300 300 303 301 301 301 304 306 307 307 307 307 306 306 307 308 307 307 306 305 305 304 303 302 300 299 297 297 296 295
294 294 294 294 294 295 294 294 294 293 293 293 295 296 298 299 293 295 294 293 294 294 296 298 299 299 299 301 300 299 298 300 304 306 305 304 303 303 304 304 302 303 304 304 304 303 303 302 300 298 297 296 295 294
293 293 294 295 296 296 295 296 294 294 294 294 294 296 298 295 290 290 290 291 291 292 293 294 295 297 297 298 298 299 297 297 298 299 303 304 304 304 304 303 301 300 302 302 303 302 301 300 298 296 295 293 293 292
294 295 296 296 297 296 296 295 295 296 295 295 295 296 297 293 291 289 288 289 289 290 291 292 293 295 295 294 295 295 297 296 296 298 300 301 301 302 303 304 303 299 297 300 299 297 296 295 294 293 293 292 291 291
295 297 298 299 299 298 297 297 295 296 296 296 296 296 296 294 292 290 288 288 289 289 290 291 292 293 294 293 292 292 291 293 296 296 296 297 297 299 300 300 301 300 297 297 297 296 296 294 293 292 291 291 290 290
294 296 298 298 297 298 297 297 296 295 295 295 292 293 292 291 288 289 288 287 287 288 290 290 290 291 290 291 291 292 291 291 293 295 296 296 296 296 297 296 296 295 294 293 293 292 292 291 291 290 290 289 288 287

GFSWCAN_925_thetae_030.txt.gz
Theta_e
304 304 304 303 303 302 300 297 296 297 298 298 298 299 300 300 300 302 303 303 301 301 301 301 301 301 300 303 305 306 304 301 303 305 307 307 309 310 314 313 312 314 315 313 313 314 314 308 307 317 317 319 319 320
304 303 303 302 301 299 298 297 297 297 298 298 298 298 299 301 301 301 301 303 302 300 301 301 301 301 301 301 303 304 307 306 304 306 303 307 310 310 313 314 311 313 310 311 312 313 308 305 306 307 308 311 320 320
303 302 301 300 296 296 296 296 296 297 297 297 298 298 298 300 301 302 302 302 301 301 301 297 299 302 302 301 300 303 301 302 304 304 306 307 309 309 313 314 312 310 307 308 309 309 308 309 309 316 316 317 319 319
302 301 297 294 295 295 295 296 296 296 297 297 297 298 299 300 300 300 301 302 302 301 302 300 301 302 304 304 301 300 302 301 302 304 306 307 309 309 312 312 313 312 312 312 311 311 311 309 313 314 315 315 316 315
299 294 294 295 294 294 294 295 295 296 296 296 296 297 298 298 299 299 300 301 302 301 303 301 300 303 305 305 303 301 302 302 304 306 308 309 306 312 313 310 311 311 312 314 315 313 312 313 313 314 312 315 315 315
293 293 294 294 294 294 294 295 295 294 295 296 296 298 298 299 300 300 301 303 302 301 300 304 301 302 304 306 305 305 304 304 305 307 308 307 304 312 313 309 307 307 308 309 312 311 312 312 313 314 313 313 312 312
290 292 293 293 293 294 294 294 294 295 296 296 297 297 299 300 301 301 302 302 301 301 301 306 302 302 306 306 307 306 305 306 307 309 310 304 307 312 310 308 307 308 308 310 310 310 311 311 311 311 312 311 311 310
291 293 293 293 293 293 293 294 296 297 296 295 296 299 301 303 302 301 302 302 300 301 304 308 303 302 307 308 310 307 309 308 310 311 307 307 304 305 309 306 308 308 309 309 309 309 309 309 308 307 308 308 309 309
292 292 292 293 293 293 294 295 297 296 295 295 299 304 303 303 302 304 305 306 302 303 308 305 305 302 302 310 310 308 309 313 308 312 307 307 305 306 306 308 309 308 309 308 308 308 308 309 308 306 306 306 307 308
292 292 292 292 293 293 294 296 297 294 294 296 300 303 308 303 301 303 307 307 304 305 307 308 304 302 303 303 306 306 306 310 311 309 307 306 304 305 306 307 306 307 306 308 308 308 307 308 307 305 305 305 305 306
292 292 291 292 292 293 294 295 294 293 293 293 293 299 298 300 303 304 307 308 305 305 304 304 304 304 301 303 304 307 307 303 310 310 313 304 304 306 307 307 306 306 306 307 307 305 305 305 306 304 304 303 303 303
291 291 292 292 293 293 294 294 294 294 294 293 293 294 298 301 301 306 306 308 307 307 305 306 306 302 301 302 305 305 305 303 309 305 310 308 306 306 307 308 306 305 306 307 307 306 305 306 305 304 303 303 302 301
291 291 291 292 293 294 294 293 294 294 293 296 298 300 303 303 304 306 305 308 311 311 312 311 311 308 303 304 303 301 305 305 301 301 307 306 307 308 306 306 305 305 306 307 307 307 306 305 304 303 303 302 301 300
291 291 292 292 293 294 293 292 293 294 294 296 301 303 302 301 302 301 304 306 309 310 310 309 310 310 308 308 304 309 305 301 301 304 306 305 307 307 307 306 305 306 306 307 307 306 305 304 303 303 302 301 300 299
291 292 292 293 293 291 290 292 293 294 293 295 298 301 301 301 300 303 306 306 307 306 309 305 310 310 309 311 307 305 308 305 302 302 299 303 306 308 307 306 305 305 305 307 306 306 305 304 303 302 301 300 299 298
291 291 294 291 290 291 292 292 293 294 294 295 296 298 300 302 301 301 301 302 301 301 301 307 310 311 310 309 308 310 305 302 300 298 301 303 307 308 307 307 306 306 305 304 306 307 305 304 303 302 301 299 298 297
291 291 290 291 291 292 292 294 294 295 294 296 297 297 298 298 300 299 299 300 297 300 304 306 310 309 308 309 308 303 302 301 300 301 301 304 306 306 307 308 307 306 305 304 305 305 304 304 303 301 300 299 298 297
291 290 291 291 292 292 293 293 295 297 296 297 298 296 297 297 299 299 298 297 299 301 306 308 310 310 311 309 306 306 305 303 302 302 303 305 305 306 307 307 307 306 305 304 305 305 304 302 301 300 300 298 297 296
291 291 290 291 292 293 292 292 294 296 296 296 296 295 296 296 296 296 297 298 297 299 302 306 308 311 309 307 307 308 307 306 308 305 304 305 306 306 307 308 308 306 305 305 305 304 304 303 302 301 300 298 296 296
290 291 291 292 291 292 293 292 294 293 296 296 296 297 296 296 296 295 295 296 295 301 303 306 306 307 308 307 306 307 308 306 306 307 306 305 306 306 306 306 305 306 305 305 305 304 303 302 302 301 300 298 297 296
291 291 291 291 291 292 290 291 292 292 292 294 295 294 294 293 293 294 294 293 296 297 300 301 302 303 302 303 304 304 305 306 306 306 306 306 305 306 306 306 306 305 304 304 303 302 303 303 302 300 300 298 297 296
291 291 291 291 291 291 290 291 291 291 292 294 293 294 294 295 296 296 295 295 296 300 301 301 302 302 303 304 304 304 304 305 306 306 306 305 307 305 305 305 305 304 304 305 305 303 303 304 303 300 299 297 296 295
292 292 292 292 293 289 288 291 292 292 295 296 293 294 294 295 297 296 296 296 300 298 299 299 299 301 302 302 303 304 305 305 304 304 305 305 306 307 307 305 306 305 304 305 305 304 303 303 302 300 299 297 296 294
292 292 291 292 293 292 292 292 287 292 292 292 291 294 295 297 297 298 299 301 300 299 299 299 300 301 302 302 303 303 304 304 304 305 305 305 305 305 307 307 306 306 306 305 305 304 302 302 301 300 298 297 295 294
289 286 289 283 288 291 294 295 294 294 293 292 293 293 295 297 298 300 302 298 296 299 298 297 297 299 301 300 301 301 300 300 301 303 304 306 306 306 306 308 307 307 306 305 304 302 302 301 300 299 298 297 296 294
287 287 289 291 291 292 293 293 293 292 292 292 292 294 295 297 298 301 299 293 293 294 294 296 295 297 299 299 300 299 299 299 299 300 303 304 306 307 307 306 306 305 307 306 304 303 301 301 300 299 297 297 297 295
289 286 289 290 292 293 293 292 291 291 293 293 293 296 296 297 297 293 294 292 292 291 292 294 295 295 297 297 298 297 297 298 300 302 303 303 305 307 308 307 307 307 307 306 304 304 302 301 300 300 298 297 297 296
290 290 291 288 292 292 294 294 294 294 293 292 292 295 297 296 291 290 292 290 290 291 292 293 294 295 294 294 296 295 294 295 300 303 303 303 303 303 303 306 307 308 306 305 305 304 304 304 301 300 299 298 297 297
290 288 290 292 292 291 294 294 295 294 292 293 294 295 295 289 289 289 288 288 289 291 292 293 293 293 293 293 292 292 292 291 293 297 299 300 301 301 301 301 303 305 306 305 304 304 305 304 303 301 300 298 297 296
290 289 289 292 294 294 296 295 295 295 293 293 295 294 290 289 287 286 286 287 288 290 290 291 291 290 291 291 291 291 290 289 290 291 293 294 296 296 296 299 300 301 304 305 304 303 302 301 300 298 297 295 295 293
289 290 294 293 293 292 293 294 296 296 295 295 294 294 290 290 288 286 285 285 285 287 287 288 288 288 288 288 289 290 290 288 288 290 291 292 292 293 294 295 297 299 300 301 301 300 298 297 296 295 294 293 292 292
292 294 294 296 293 292 292 294 294 296 292 292 292 293 290 289 288 286 284 284 284 284 285 286 286 287 286 286 286 286 286 286 286 286 288 291 292 292 292 293 295 297 298 298 298 297 296 295 294 293 291 291 290 290
291 293 293 293 290 293 292 294 296 293 290 289 288 289 289 288 286 285 284 283 283 283 283 284 284 285 284 284 283 284 285 287 288 289 290 290 291 292 292 292 292 293 294 294 293 293 293 292 291 291 289 288 288 288

GFSWCAN_925_thetae_033.txt.gz
Theta_e
303 303 303 303 302 301 298 297 297 297 298 298 298 298 298 299 300 302 301 302 301 302 302 302 302 302 302 302 304 305 306 307 307 309 307 308 310 311 313 313 314 314 316 315 314 314 315 307 307 315 314 310 311 313
303 303 303 302 300 296 296 296 297 297 297 297 297 298 298 299 299 301 302 301 302 301 302 302 302 302 302 303 302 304 307 307 307 310 307 308 310 310 312 316 312 315 310 313 312 314 309 307 303 303 305 306 309 312
303 303 302 298 294 296 295 294 295 295 296 296 296 297 297 298 300 301 302 302 301 301 302 302 303 302 301 301 301 304 305 306 306 306 307 308 310 310 315 315 314 310 307 308 309 311 310 311 309 313 317 315 317 318
302 301 297 294 294 294 294 294 295 295 295 295 295 296 296 297 298 299 300 301 301 302 302 304 302 302 302 302 301 301 304 303 304 305 307 309 311 309 314 313 313 313 312 312 311 311 310 311 311 313 314 315 314 316
301 297 293 293 294 294 294 294 294 294 295 295 296 297 297 297 298 298 299 300 300 301 305 304 302 302 302 302 301 301 301 302 305 308 308 311 309 309 313 313 313 312 312 313 314 312 312 312 313 311 313 314 313 313
298 292 292 293 294 293 294 293 294 295 296 297 297 298 298 298 299 300 303 302 302 301 303 305 303 305 304 305 303 301 301 303 306 307 309 310 308 311 315 313 311 311 311 311 313 313 312 311 311 312 312 312 312 310
293 291 292 293 293 293 293 294 295 296 297 297 295 294 296 298 299 301 303 302 302 301 302 305 307 305 305 307 306 306 304 306 307 310 311 311 310 312 314 314 312 312 311 311 312 311 310 308 309 308 309 310 310 309
290 292 293 293 292 293 294 293 295 296 296 294 293 297 301 302 300 301 302 301 301 301 302 307 308 307 307 312 312 309 309 308 309 312 311 311 312 311 315 313 311 311 310 311 311 310 309 308 307 307 308 309 309 308
291 292 292 292 292 292 293 294 295 295 293 292 296 303 303 302 303 303 302 304 302 302 305 307 308 310 305 312 312 311 310 313 310 312 312 311 313 315 314 311 311 310 311 310 310 309 309 308 306 306 306 307 308 308
292 292 292 292 292 293 293 294 295 295 292 291 296 301 308 303 299 301 304 305 302 303 304 308 306 308 306 308 310 312 310 313 314 313 311 314 315 312 310 311 311 310 310 309 310 310 309 307 306 305 305 305 306 306
292 292 292 292 292 293 294 294 295 294 292 293 292 298 297 297 302 306 307 309 306 306 306 307 307 308 306 309 309 310 312 309 313 313 315 315 316 313 311 312 310 310 310 310 309 308 307 306 305 304 304 304 304 304
291 291 291 292 292 293 294 294 294 294 294 294 294 294 295 301 303 306 307 307 308 307 308 307 307 305 307 305 311 308 312 309 311 308 313 313 315 311 312 311 311 311 310 310 309 308 307 306 304 303 303 303 302 301
291 291 292 292 293 293 294 294 294 294 294 295 296 299 301 303 304 304 305 309 311 310 311 309 310 308 306 307 309 309 312 312 307 311 312 315 312 311 311 311 310 310 310 310 309 308 306 305 303 302 302 301 300 300
291 291 292 292 293 293 292 293 294 294 294 295 300 300 302 301 302 305 306 308 308 307 306 308 309 310 310 309 309 312 309 309 313 313 313 312 312 312 311 310 310 311 311 310 308 308 307 305 303 301 300 300 300 299
291 292 292 293 291 291 292 293 293 294 293 295 298 299 301 302 302 303 305 306 305 306 307 304 308 310 311 311 308 309 312 314 313 314 312 311 310 312 311 311 311 311 311 311 309 308 307 305 303 301 300 300 299 298
291 291 293 290 290 291 292 292 293 293 293 294 295 297 299 301 304 304 302 303 303 304 303 306 312 312 313 312 312 313 313 314 316 311 311 308 311 312 312 311 311 311 311 310 309 307 306 306 304 301 300 299 298 298
291 290 290 290 291 292 292 293 293 293 294 296 297 298 299 299 300 302 303 302 301 302 306 310 311 312 309 312 313 310 313 313 310 309 308 308 310 312 312 312 310 310 309 309 310 307 307 305 303 302 302 299 298 297
291 290 290 291 292 292 292 293 293 295 295 296 297 298 300 301 301 301 301 300 300 302 305 307 308 311 311 312 313 311 309 309 308 310 310 309 310 310 311 312 311 310 309 309 309 307 306 305 304 302 301 299 299 298
290 290 291 291 292 292 292 292 294 295 296 297 298 298 298 299 299 299 299 299 300 300 303 305 307 309 310 310 311 312 312 312 312 312 310 311 309 310 310 310 311 310 309 309 308 308 307 306 305 302 301 300 300 298
290 291 291 291 291 292 292 293 293 295 296 297 297 297 298 296 296 296 297 297 298 298 302 305 306 307 307 307 307 307 308 308 309 311 313 312 311 309 310 310 310 310 309 308 308 307 306 305 304 302 301 300 300 299
291 291 291 291 291 291 292 293 294 295 296 296 297 296 295 295 297 297 297 296 298 300 303 304 303 302 302 303 304 305 306 307 308 310 311 311 311 310 311 310 309 309 309 308 308 307 306 306 304 302 300 300 299 298
291 291 291 291 292 292 293 292 293 293 294 295 295 296 296 297 297 298 298 298 301 301 300 299 300 301 301 302 303 304 305 306 306 306 306 307 309 310 311 311 309 310 309 309 308 307 307 305 303 301 300 298 298 297
291 291 292 292 293 292 292 291 294 294 295 296 296 294 295 296 297 298 298 301 300 298 298 298 298 299 300 301 302 303 303 303 304 306 307 308 308 309 309 310 309 310 310 309 308 308 307 304 301 301 299 298 297 296
292 292 291 292 292 292 294 294 293 295 296 295 293 293 293 296 298 299 301 296 295 294 295 296 296 298 300 300 301 301 301 300 300 301 303 306 308 308 308 310 309 309 309 308 308 307 305 304 301 300 299 298 297 297
289 288 290 286 290 291 293 294 294 295 294 293 293 293 295 296 298 299 298 295 293 294 293 293 295 295 296 298 299 299 298 298 300 301 301 303 306 307 309 309 309 308 308 308 307 306 305 303 303 302 300 299 298 297
286 288 290 292 293 293 294 294 293 293 293 293 293 294 296 297 299 297 295 293 292 292 292 292 293 295 296 295 296 296 295 295 297 300 302 304 305 307 310 311 311 309 307 307 307 305 304 303 303 302 301 299 297 297
288 290 291 291 293 293 293 294 293 293 293 294 294 295 296 297 295 293 292 292 291 290 290 292 293 293 293 293 292 292 292 292 295 301 303 303 303 304 306 308 310 309 307 307 307 307 305 303 303 302 301 299 298 297
291 291 292 292 293 293 294 294 294 294 294 294 295 295 296 292 291 290 291 289 288 290 291 292 291 291 292 292 291 290 290 290 293 296 299 297 297 298 298 301 302 306 307 307 307 306 305 304 303 302 300 300 298 297
291 291 292 292 293 293 294 294 295 295 294 294 296 296 291 289 288 287 287 287 288 289 289 290 289 289 289 290 290 290 288 288 289 292 294 294 294 294 294 297 299 302 305 305 305 305 305 304 303 301 300 299 298 296
292 291 293 294 294 295 296 295 296 296 295 295 293 290 289 288 286 285 285 286 286 287 287 288 288 287 288 288 288 289 288 287 286 287 289 291 291 290 292 294 295 298 302 304 303 304 303 303 303 305 300 297 295 294
292 293 293 294 295 296 296 296 295 296 296 295 295 293 290 289 288 285 284 284 285 286 286 287 287 286 286 286 286 286 287 286 285 285 285 286 287 289 291 293 294 295 299 300 301 302 302 301 300 298 297 296 295 294
293 294 295 296 296 297 296 297 297 296 293 293 292 292 290 289 287 286 284 284 284 284 284 285 285 285 284 283 283 283 283 284 284 285 285 286 288 290 291 291 292 294 295 297 298 299 300 299 297 296 295 295 293 293
295 295 295 296 295 295 295 295 294 292 291 291 290 290 289 288 286 285 284 283 283 283 283 283 283 283 283 281 281 282 282 282 284 286 288 289 289 290 291 289 289 289 290 291 291 292 292 292 291 290 289 288 287 286